Tracking 29892 objects as of 21-Nov-2024
HD Live streaming from Space Station
objects crossing your sky now

IRIDIUM 33 DEB

Track IRIDIUM 33 DEB now!
10-day predictions


NORAD ID: 33859
Int'l Code: 1997-051AC
Perigee: 625.6 km
Apogee: 670.7 km
Inclination: 86.3 °
Period: 97.5 minutes
Semi major axis: 7019 km
RCS: 0.0754 m2 (small)
Launch date: September 14, 1997
Source: United States (US)
Launch site: TYURATAM MISSILE AND SPACE COMPLEX (TTMTR)

Note: This is SATELLITE DEBRIS
Your satellite tracking list
Your tracking list is empty




NASA's NSSDC Master Catalog

Two Line Element Set (TLE):
1 33859U 97051AC  24325.68454983  .00037339  00000-0  53154-2 0  9998
2 33859  86.3348 182.6633 0032156 294.1770  65.6088 14.76301828827648
Source of the keplerian elements: AFSPC